<?xml version="1.0" encoding="UTF-8" standalone="no" ?>
<gpx xmlns="http://www.topografix.com/GPX/1/1" xmlns:xsi="http://www.w3.org/2001/XMLSchema-instance" xsi:schemaLocation="http://www.topografix.com/GPX/1/1 http://www.topografix.com/GPX/1/1/gpx.xsd" version="1.1" creator="VisuGPX - https://www.visugpx.com">
  <metadata>
    <name>GITER Poitou Charentes : boucle 86</name>
    <desc><![CDATA[Partie en Vienne de la Boucle centrale
[url]http://cdte86.free.fr/spip.php?article137[/url]]]></desc>
  </metadata>
  <trk>
    <name><![CDATA[Trk012]]></name>
    <trkseg>
      <trkpt lat="46.25124" lon="0.5486">
        <ele>145</ele>
        <time>2007-04-22T21:48:02Z</time>
      </trkpt>
      <trkpt lat="46.25213" lon="0.54539">
        <ele>143</ele>
        <time>2007-04-22T21:48:02Z</time>
      </trkpt>
      <trkpt lat="46.25196" lon="0.54313">
        <ele>140</ele>
        <time>2007-04-22T21:48:02Z</time>
      </trkpt>
      <trkpt lat="46.25179" lon="0.54041">
        <ele>139</ele>
        <time>2007-04-22T21:48:02Z</time>
      </trkpt>
      <trkpt lat="46.25232" lon="0.53695">
        <ele>140</ele>
        <time>2007-04-22T21:48:02Z</time>
      </trkpt>
      <trkpt lat="46.24826" lon="0.5367">
        <ele>141</ele>
        <time>2007-04-22T21:48:02Z</time>
      </trkpt>
      <trkpt lat="46.24493" lon="0.53636">
        <ele>145</ele>
        <time>2007-04-22T21:48:02Z</time>
      </trkpt>
      <trkpt lat="46.2429" lon="0.53597">
        <ele>142</ele>
        <time>2007-04-22T21:48:02Z</time>
      </trkpt>
      <trkpt lat="46.24178" lon="0.53685">
        <ele>144</ele>
        <time>2007-04-22T21:48:02Z</time>
      </trkpt>
      <trkpt lat="46.24158" lon="0.53536">
        <ele>142</ele>
        <time>2007-04-22T21:48:02Z</time>
      </trkpt>
      <trkpt lat="46.24101" lon="0.53603">
        <ele>144</ele>
        <time>2007-04-22T21:48:02Z</time>
      </trkpt>
      <trkpt lat="46.24041" lon="0.53813">
        <ele>144</ele>
        <time>2007-04-22T21:48:02Z</time>
      </trkpt>
      <trkpt lat="46.2396" lon="0.53796">
        <ele>142</ele>
        <time>2007-04-22T21:48:02Z</time>
      </trkpt>
      <trkpt lat="46.23945" lon="0.53997">
        <ele>144</ele>
        <time>2007-04-22T21:48:02Z</time>
      </trkpt>
      <trkpt lat="46.23759" lon="0.53913">
        <ele>137</ele>
        <time>2007-04-22T21:48:02Z</time>
      </trkpt>
      <trkpt lat="46.23568" lon="0.53783">
        <ele>135</ele>
        <time>2007-04-22T21:48:02Z</time>
      </trkpt>
      <trkpt lat="46.23463" lon="0.53404">
        <ele>142</ele>
        <time>2007-04-22T21:48:02Z</time>
      </trkpt>
      <trkpt lat="46.23342" lon="0.53135">
        <ele>145</ele>
        <time>2007-04-22T21:48:02Z</time>
      </trkpt>
      <trkpt lat="46.23261" lon="0.53138">
        <ele>145</ele>
        <time>2007-04-22T21:48:02Z</time>
      </trkpt>
      <trkpt lat="46.2312" lon="0.53052">
        <ele>143</ele>
        <time>2007-04-22T21:48:02Z</time>
      </trkpt>
      <trkpt lat="46.23052" lon="0.53028">
        <ele>141</ele>
        <time>2007-04-22T21:48:02Z</time>
      </trkpt>
      <trkpt lat="46.23008" lon="0.53082">
        <ele>139</ele>
        <time>2007-04-22T21:48:02Z</time>
      </trkpt>
      <trkpt lat="46.22998" lon="0.53283">
        <ele>142</ele>
        <time>2007-04-22T21:48:02Z</time>
      </trkpt>
      <trkpt lat="46.22829" lon="0.53697">
        <ele>138</ele>
        <time>2007-04-22T21:48:02Z</time>
      </trkpt>
      <trkpt lat="46.22689" lon="0.53974">
        <ele>138</ele>
        <time>2007-04-22T21:48:02Z</time>
      </trkpt>
      <trkpt lat="46.22606" lon="0.54385">
        <ele>141</ele>
        <time>2007-04-22T21:48:02Z</time>
      </trkpt>
      <trkpt lat="46.22411" lon="0.54301">
        <ele>144</ele>
        <time>2007-04-22T21:48:02Z</time>
      </trkpt>
      <trkpt lat="46.22288" lon="0.54233">
        <ele>148</ele>
        <time>2007-04-22T21:48:02Z</time>
      </trkpt>
      <trkpt lat="46.22129" lon="0.54427">
        <ele>149</ele>
        <time>2007-04-22T21:48:02Z</time>
      </trkpt>
      <trkpt lat="46.22104" lon="0.54538">
        <ele>145</ele>
        <time>2007-04-22T21:48:02Z</time>
      </trkpt>
      <trkpt lat="46.21835" lon="0.54592">
        <ele>150</ele>
        <time>2007-04-22T21:48:02Z</time>
      </trkpt>
      <trkpt lat="46.21739" lon="0.54478">
        <ele>149</ele>
        <time>2007-04-22T21:48:02Z</time>
      </trkpt>
      <trkpt lat="46.21687" lon="0.54325">
        <ele>147</ele>
        <time>2007-04-22T21:48:02Z</time>
      </trkpt>
      <trkpt lat="46.21657" lon="0.54118">
        <ele>148</ele>
        <time>2007-04-22T21:48:02Z</time>
      </trkpt>
      <trkpt lat="46.21686" lon="0.53962">
        <ele>147</ele>
        <time>2007-04-22T21:48:02Z</time>
      </trkpt>
      <trkpt lat="46.21724" lon="0.53552">
        <ele>142</ele>
        <time>2007-04-22T21:48:02Z</time>
      </trkpt>
      <trkpt lat="46.21671" lon="0.53307">
        <ele>135</ele>
        <time>2007-04-22T21:48:02Z</time>
      </trkpt>
      <trkpt lat="46.21747" lon="0.53033">
        <ele>136</ele>
        <time>2007-04-22T21:48:02Z</time>
      </trkpt>
    </trkseg>
  </trk>
</gpx>